{"data":{"norad_id":65814,"epoch":"2026-09-20T14:09:23.567040Z","epoch_age_seconds":98349,"freshness":"FRESH","line1":"1 65814U 25218Z   26263.58985610  .00018053  00000+0  55992-3 0  9992","line2":"2 65814  97.2835 120.9171 0001738  80.7338 279.4101 15.33458952 54344","mean_motion":15.33458952,"eccentricity":0.0001738,"inclination_deg":97.2835,"raan_deg":120.9171,"arg_perigee_deg":80.7338,"mean_anomaly_deg":279.4101,"bstar":0.00055992,"rev_number":5434,"period_min":93.905350262026,"perigee_km":464.31223905723,"apogee_km":466.69108785665,"semimajor_km":6843.6386634569,"source":"CELESTRAK","updated_at":"2026-09-21T09:00:35.718575Z"}}